Regional Weather Roundup
Issued by NWS Wakefield, VA

Home | Current Version | Previous Version | Text Only | Print | Product List | Glossary Off
Versions: 1 2 3 4 5 6 7 8 9 10 11 12 13 14 15 16 17 18 19 20 21 22 23 24 25 26 27 28 29 30 31 32 33 34 35 36 37 38 39 40 41 42 43 44 45 46 47 48 49 50

000
ASUS41 KAKQ 251810
RWRAKQ

REGIONAL WEATHER ROUNDUP
NATIONAL WEATHER SERVICE WAKEFIELD VA
100 PM EST TUE NOV 25 2014

Note: "fair" indicates few or no clouds below 12,000 feet with no
significant weather and/or obstructions to visibility. * = Denotes
station may not report precipitation (e.g., rain,snow,etc.),
thunder or fog.

VAZ042-051-052>054-056-251900-
NORTHERN VIRGINIA

CITY           SKY/WX    TMP DP  RH WIND       PRES   REMARKS
WASH NATIONAL  CLOUDY    57  32  38 NW6       30.07F
DULLES         CLOUDY    53  32  44 N3        30.05F
FORT BELVOIR   CLOUDY    55  33  43 N2        30.05F
QUANTICO       CLOUDY    53  37  54 CALM      30.07F
FREDERICKSBRG* CLOUDY    57  37  46 CALM      30.06S
STAFFORD*      CLOUDY    55  33  43 CALM      30.10S
WARRENTON      CLOUDY    56  43  63 SE3       30.05F
CULPEPER*      CLOUDY    55  39  54 CALM      30.06F
MANASSAS*      NOT AVBL
LEESBURG*      CLOUDY    54  34  47 W7        30.06S
WINCHESTER     CLOUDY    55  19  24 W9        30.04F
FRONT ROYAL*   CLOUDY    55  27  33 W7        30.04R
LURAY*         CLOUDY    59  32  36 S5        30.05R
$$

VAZ048-049-060>072-079>083-251900-
CENTRAL AND SOUTH CENTRAL VIRGINIA

CITY           SKY/WX    TMP DP  RH WIND       PRES   REMARKS
RICHMOND       CLOUDY    59  42  53 N7        30.04F
CHESTERFIELD*  CLOUDY    57  37  47 N6        30.05F
PETERSBURG*    CLOUDY    60  45  57 N6        30.04F
HANOVER        CLOUDY    57  41  55 N3        30.06F
TAPPAHANNOCK*  CLOUDY    57  35  44 N5        30.05F
QUINTON*       CLOUDY    56  41  56 NE3       30.04F
CHARLOTTSVILLE CLOUDY    55  31  39 SW5       30.05F
GORDONSVILLE*  CLOUDY    56  32  40 W5        30.05F
ORANGE*        CLOUDY    57  36  44 S5        30.06F
LOUISA*        CLOUDY    57  45  62 CALM      30.04F
BUMPASS*       CLOUDY    55  41  58 CALM      30.05F
FARMVILLE*     CLOUDY    58  39  48 CALM      30.04F
CREWE*         CLOUDY    58  36  43 CALM      30.04F
FORT PICKETT*  CLOUDY    58  41  53 NW5       30.04F
CHASE CITY*    CLOUDY    57  39  51 NW5       30.04F
CLARKSVILLE*   CLOUDY    55  37  50 NW3       30.04F
SOUTH HILL*    CLOUDY    56  42  58 NW3       30.09F
LAWRENCEVILLE* CLOUDY    58  46  64 NW5       30.03F
$$

VAZ088>098-251900-
SOUTHEAST VIRGINIA

CITY           SKY/WX    TMP DP  RH WIND       PRES   REMARKS
NORFOLK        LGT RAIN  60  47  61 N9        30.01F
VIRGINIA BEACH CLOUDY    63  60  90 W6        30.00F
NORFOLK NAVAL  LGT RAIN  57  47  69 N12G21    30.04S
WEST POINT*    CLOUDY    60  40  47 N5        30.05F
SALUDA*        MOCLDY    56  44  62 N7        30.03F
NEWPORT NEWS   CLOUDY    59  46  62 NE7       30.02F
LANGLEY AFB    CLOUDY    55  48  76 N9        30.03F
FORT EUSTIS    CLOUDY    61  57  88 E10       29.99F
WILLIAMSBURG*  CLOUDY    63  52  67 N5        30.02F
HR EXEC AP*    CLOUDY    54  54 100 CALM      30.03F
FRANKLIN*      CLOUDY    63  59  88 CALM      30.02F
WAKEFIELD      LGT RAIN  62  54  74 NW3       30.01F
$$

VAZ020-022-025-037-045-251900-
WEST CENTRAL AND SOUTHWEST VIRGINIA

CITY           SKY/WX    TMP DP  RH WIND       PRES   REMARKS
STAUNTON*      CLOUDY    54  29  37 CALM      30.07S
WAYNESBORO*    CLOUDY    52  28  39 W10       30.06S
HOT SPRINGS VA CLOUDY    40  25  54 W13       30.01F
LYNCHBURG      CLOUDY    53  31  42 VRB3      30.07F
DANVILLE       CLOUDY    57  38  48 NW6       30.07F
SOUTH BOSTON*  CLOUDY    55  35  46 NW9       30.07F
MARTINSVILLE   CLOUDY    56  35  43 CALM      30.09F
ROANOKE        CLOUDY    54  26  34 W7        30.08F
BLACKSBURG     CLOUDY    48  30  49 W5        30.09F
DUBLIN*        CLOUDY    51  26  38 W5        30.09F
MARION*        PTSUNNY   49  29  46 SW9       30.10F
HILLSVILLE*    CLOUDY    45  27  50 NW8       30.08F
RICHLANDS*     CLEAR     50  26  40 W6        30.07F
WISE*          SUNNY     50  27  40 SW7       30.08F
ABINGDON*      SUNNY     51  30  43 S6        30.09F
$$

MDZ021>025-VAZ099-100-251900-
SOUTHERN MARYLAND AND THE DELMARVA PENINSULA

CITY           SKY/WX    TMP DP  RH WIND       PRES   REMARKS
PATUXENT RIVER CLOUDY    54  35  48 N9        30.05F
BAY BRIDGE APT   N/A     52  34  50 N5        30.05F
LEONARDTOWN    CLOUDY    55  34  44 CALM      30.07S
DOVER          CLOUDY    55  36  49 NW10      30.02F
GEORGETOWN     CLOUDY    57  34  41 N7        30.04F
EASTON         CLOUDY    55  36  47 N6        30.08F
CAMBRIDGE      CLOUDY    55  36  47 N6        30.04F
SALISBURY      CLOUDY    59  38  45 N8        30.03F
OCEAN CITY     CLOUDY    57  39  51 N9        30.01F
WALLOPS ISLAND CLOUDY    58  44  60 N8        30.02F
ACCOMACK*      CLOUDY    55  41  58 NW6       30.02F
$$

NCZ012>017-030>032-251900-
NORTH CENTRAL AND EASTERN NORTH CAROLINA

CITY           SKY/WX    TMP DP  RH WIND       PRES   REMARKS
ROANOKE RAPIDS CLOUDY    57  43  58 CALM      30.04R
RALEIGH        CLOUDY    59  44  57 VRB5      30.05F
ELIZABETH CITY CLOUDY    66  60  81 W7        30.02F
AHOSKIE*       RAIN      60  59  96 CALM      30.04S
EDENTON*       RAIN      63  61  95 NW5       30.01F
CURRITUCK*     CLOUDY    63  60  91 W8        30.02F
KILL DEVIL HLS CLOUDY    62  61  96 W6        30.00F
MANTEO         CLOUDY    62  60  94 CALM      30.01F
CAPE HATTERAS  CLOUDY    62  61  96 N5        30.02F
TARBORO*       RAIN      62  60  93 NW6       30.04S
GOLDSBORO      LGT RAIN  62  62  99 W5        30.01S
WASHINGTON     CLOUDY    64  61  91 W3        30.02F
GREENVILLE     LGT RAIN  63  61  94 W3        30.05R
NEW BERN       CLOUDY    67  62  84 W8        30.02F
WILMINGTON     CLOUDY    67  63  87 W10       30.02F
$$

VAZ048-251900-
ELSEWHERE

CITY           SKY/WX    TMP DP  RH WIND       PRES   REMARKS
HARRISBURG PA  CLOUDY    52  29  41 NW16      30.02F
BALTIMORE      CLOUDY    54  29  38 NW7       30.04F
ANNAPOLIS      CLOUDY    53  32  44 NW6       30.04F
ANDREWS AFB    CLOUDY    54  33  45 N7        30.04F
PHILADELPHIA   CLOUDY    55  28  35 W13       30.05S
WILDWOOD NJ*   CLOUDY    54  36  50 NW9         N/A
HENDERSON NC   CLOUDY    56  39  54 N3        30.04F
GREENSBORO     CLOUDY    57  40  52 VRB6      30.06F
ROCKY MOUNT    LGT RAIN  57  54  89 N7        30.03F
$$

VAZ100-251900-
MARINE

STATION/POSITION TIME  TEMP    WIND        PRES    WAVE   SWELL
                       AIR SEA DIR/SP/G            HT/PER HT/PER
                 (UTC) (F)     (DEG/KT/KT) (MB)    (FT/S) (FT/S)
CAPE MAY NJ      1800   50 51  340/  5/  7 1016.6F
LEWES DE         1800   52 51  350/ 10/ 12 1016.9F
15NM E FENWICK I 1800   54 54              1016.4S   5/ 9
OCEAN-CITY-INLET 1800   57 50   10/  9/ 11 1016.6R
WACHAPREAGUE VA  1800   57 53  340/  2/  5 1016.7R
THOMAS POINT MD  1800   53 49  360/  7/  7 1018.5F
GOOSES REEF MD   1800   51      40/  8/  8 1018.0F
COVE POINT MD    1800   50      30/ 10/ 11 1017.6S
SOLOMONS ISLAND  1800      50                N/A
BISHOPS HEAD MD  1800   54 51  350/  6/  9 1016.8R
PINEY POINT MD   1800          330/  9/  9   N/A
POTOMAC MD       1800   54      30/ 10/ 12 1016.9F
CAMBRIDGE MD     1800   52 45  340/ 10/ 12 1017.2F
LEWISETTA VA     1800   54 50   30/  2/  4 1017.0F
RAPPAHANNOCK LGT 1800          350/ 16/ 18 1016.9F
STINGRAY PT      1800   52      10/  4/  6 1017.7R
YORK RVR RNG VA  1800   55      30/ 11/ 12 1016.3F
YORKTOWN VA      1800   56 52   70/  2/  4 1016.5F
JAMESTOWN VA     1800   58      10/  8/ 12   N/A
DOMINION TERM VA 1800   57     290/  3/  4 1016.5F
KIPTOPEKE VA     1800      56   30/  9/ 13   N/A
CHES BAY BRIDGE  1800   58 53  240/  9/ 12 1016.2R
CAPE HENRY VA    1800   61     250/  7/ 10 1015.1F
CHESAPEAKE LGHT  1700   60     230/ 17/ 17 1016.9F
WILLOUBY STN VA  1800   54      30/ 11/ 13 1015.4R
S CRANEY ISL VA  1800          250/  4/  8 1016.3S
CAPE HENRY BUOY  1800      57                N/A     4/ 9
1ST LANDING BUOY 1800   57     260/  8/ 16 1016.3R
CAPE CHARLES BUO 1800      55                N/A     3/ 9   3/ 9
64NM E OF VA BCH 1800   63 64  260/ 10/ 12 1016.3F   5/ 9   5/ 9
DUCK PIER NC     1800   60 59  240/  6/  8 1015.5F
44100 DUCK FRF   1800      59                N/A     4/ 9   2/11
44056 DUCK FRF   1800      58                N/A     3/ 9   2/11
OREGON INLET NC  1800   62 57  310/  5/  7 1016.5R
HATTERAS NC      1800   63 62  320/  5/  6 1016.8R
DIAMOND SHLS NC  1800   68     340/  6/ 10 1016.4F   5/ 9   5/ 9
CAPE LOOKOUT NC  1700   63     290/  5/  6 1016.3F
$$



USA.gov is the U.S. government's official web portal to all federal, state and local government web resources and services.